Content
SEND FEEDBACK

Daily
Averages
Monthly
Summary
United States of America

MANISTIQUE, MICHIGAN


Home > North America > United States > Michigan
Elevation: 610 feet     Latitude: 45 58N     Longitude: 086 15W

WEATHER
 
SELECT A DAY
Number of Records: 421,932;   Date Range: 5/11/98 - 12/26/14
 
SHARE

PRINT THIS DATA

[ ← Previous Day ]
WEATHER ALMANAC - APRIL 26, 2014
[ Next Day → ]
[ °C ]   °F
Weather ElementAverageHighLow
Temperature37.9 °F47.8 °F (3:55 pm)28.9 °F (11:55 pm)
Dewpoint28.8 °F34.3 °F (10:35 am)19.4 °F (8:15 pm)
Humidity73.3 %98 % (5:15 am)40 % (3:55 pm)
Barometer30.00 in30.16 in (9:35 pm)29.79 in (12:35 am)
Wind Speed9.9 mph18.4 mph (4:34 pm)
Wind Gust25.3 mph (4:34 pm)
Weather ElementAverage
Visibility10 mi
Wind DirectionWNW (296.4 °)

Weather ElementTotal
Precipitation---
Heating Degree Days26.7 (Base 65)
Averaged from 70 records on April 26, 2014
WEATHER CONDITIONS BREAKOUT
WIND DIRECTION BREAKOUT
WEATHER BY HOUR - APRIL 26, 2014
[ °C ]   °F
Local TimeTemperatureDewpointHumidityBarometerVisibilityWind DirectionWind SpeedGust SpeedPrecipitationEventsConditions
12:35 AM34.5 °F33.8 °F97 %29.79 in7.0 miNW (320°)5.8 mphOvercast
1:15 AM34.2 °F33.3 °F97 %29.80 in10.0 miNW (320°)5.8 mphOvercast
1:34 AM34.0 °F32.9 °F96 %29.80 in10.0 miNW (320°)5.8 mphOvercast
1:54 AM33.8 °F32.7 °F96 %29.80 in10.0 miNW (310°)8.1 mphOvercast
2:14 AM33.8 °F32.5 °F95 %29.81 in10.0 miWNW (300°)8.1 mphOvercast
2:34 AM33.8 °F32.5 °F95 %29.81 in10.0 miNW (310°)6.9 mphOvercast
2:54 AM33.8 °F32.5 °F95 %29.81 in10.0 miNW (320°)8.1 mphOvercast
3:14 AM33.4 °F32.4 °F96 %29.81 in10.0 miNNW (330°)9.2 mphOvercast
3:35 AM33.3 °F32.4 °F96 %29.81 in10.0 miNW (320°)8.1 mphOvercast
3:54 AM33.1 °F32.0 °F96 %29.82 in10.0 miNNW (330°)6.9 mphOvercast
4:15 AM33.1 °F32.0 °F96 %29.83 in10.0 miNNW (330°)6.9 mphOvercast
4:34 AM33.1 °F32.0 °F96 %29.83 in10.0 miNNW (330°)6.9 mphOvercast
4:55 AM32.9 °F31.8 °F96 %29.84 in10.0 miNNW (330°)8.1 mphOvercast
5:15 AM32.4 °F31.8 °F98 %29.84 in10.0 miNNW (340°)8.1 mphOvercast
5:34 AM32.7 °F32.0 °F97 %29.85 in10.0 miNNW (330°)8.1 mphOvercast
5:55 AM32.9 °F32.0 °F96 %29.86 in10.0 miNW (320°)8.1 mphOvercast
6:15 AM32.7 °F32.0 °F97 %29.88 in10.0 miNW (320°)6.9 mphOvercast
6:34 AM32.9 °F32.0 °F96 %29.89 in10.0 miNW (310°)8.1 mphOvercast
6:55 AM33.3 °F32.2 °F96 %29.90 in10.0 miNNW (340°)8.1 mphOvercast
7:14 AM33.6 °F32.2 °F94 %29.92 in10.0 miNNW (330°)9.2 mphOvercast
7:34 AM33.4 °F32.0 °F94 %29.92 in10.0 miNorth (350°)9.2 mphMostly Cloudy
7:55 AM34.0 °F32.9 °F96 %29.93 in10.0 miNNW (340°)8.1 mph16.1 mphOvercast
8:14 AM34.3 °F33.1 °F95 %29.94 in10.0 miNorth (350°)9.2 mphOvercast
8:35 AM34.7 °F33.4 °F95 %29.95 in10.0 miNorth (350°)6.9 mphOvercast
8:54 AM35.1 °F33.3 °F93 %29.96 in10.0 miNNW (340°)5.8 mphOvercast
9:15 AM35.8 °F33.8 °F92 %29.97 in10.0 miNNW (340°)5.8 mphOvercast
9:35 AM36.5 °F33.8 °F90 %29.97 in10.0 miNorth (350°)9.2 mphOvercast
9:54 AM37.0 °F34.0 °F89 %29.98 in10.0 miNNW (340°)8.1 mph16.1 mphOvercast
10:15 AM37.4 °F33.8 °F87 %29.99 in10.0 miNNW (340°)6.9 mphOvercast
10:35 AM38.7 °F34.3 °F84 %30.00 in10.0 miNNW (340°)10.4 mph16.1 mphOvercast
10:54 AM39.2 °F33.6 °F80 %30.01 in10.0 miNNW (340°)10.4 mph17.3 mphOvercast
11:15 AM41.9 °F34.0 °F73 %30.02 in10.0 miNorth (360°)11.5 mph18.4 mphMostly Cloudy
11:35 AM42.3 °F32.9 °F69 %30.01 in10.0 miNNW (330°)12.7 mph18.4 mphOvercast
11:54 AM43.0 °F32.0 °F65 %30.01 in10.0 miNorth (10°)17.3 mph21.9 mphMostly Cloudy
12:15 PM43.3 °F32.0 °F64 %30.02 in10.0 miNNW (330°)10.4 mph20.7 mphMostly Cloudy
12:34 PM43.5 °F32.2 °F64 %30.03 in10.0 miNNW (340°)12.7 mph19.6 mphOvercast
12:54 PM43.9 °F31.8 °F63 %30.03 in10.0 miNNW (330°)10.4 mph19.6 mphMostly Cloudy
1:15 PM45.3 °F31.8 °F59 %30.03 in10.0 miNNW (330°)15.0 mph19.6 mphMostly Cloudy
1:34 PM45.9 °F30.6 °F55 %30.04 in10.0 miNNE (20°)15.0 mph20.7 mphScattered Clouds
1:55 PM45.7 °F29.5 °F53 %30.05 in10.0 miNNE (20°)15.0 mph23.0 mphScattered Clouds
2:15 PM46.4 °F29.3 °F51 %30.05 in10.0 miNNE (20°)11.5 mphScattered Clouds
2:34 PM46.9 °F29.1 °F50 %30.05 in10.0 miNW (320°)15.0 mph20.7 mphScattered Clouds
2:55 PM46.9 °F27.3 °F46 %30.05 in10.0 miNNE (20°)15.0 mph20.7 mphClear
3:15 PM47.7 °F26.4 °F44 %30.06 in10.0 miNorth (350°)12.7 mph21.9 mphClear
3:34 PM46.9 °F26.2 °F44 %30.06 in10.0 miNNW (340°)11.5 mph20.7 mphClear
3:55 PM47.8 °F24.3 °F40 %30.07 in10.0 miNorth (360°)13.8 mphClear
4:14 PM47.5 °F25.0 °F41 %30.07 in10.0 miNorth (10°)16.1 mph21.9 mphClear
4:34 PM46.4 °F23.5 °F41 %30.07 in10.0 miNorth (350°)18.4 mph25.3 mphClear
4:55 PM45.7 °F24.4 °F43 %30.08 in10.0 miNNW (340°)16.1 mph24.2 mphClear
5:14 PM44.6 °F22.3 °F41 %30.08 in10.0 miNorth (360°)13.8 mph23.0 mphClear
5:35 PM44.1 °F21.4 °F41 %30.09 in10.0 miNNW (340°)15.0 mph24.2 mphClear
5:55 PM44.4 °F23.5 °F44 %30.09 in10.0 miNNW (340°)17.3 mph21.9 mphClear
6:14 PM43.7 °F23.2 °F44 %30.10 in10.0 miNNW (340°)10.4 mphClear
6:35 PM42.8 °F22.8 °F45 %30.11 in10.0 miNorth (360°)6.9 mph18.4 mphClear
6:55 PM41.9 °F19.8 °F41 %30.11 in10.0 miNorth (10°)15.0 mph20.7 mphClear
7:14 PM41.0 °F19.8 °F43 %30.11 in10.0 miNNW (340°)12.7 mph19.6 mphClear
7:35 PM40.1 °F20.5 °F45 %30.12 in10.0 miNNW (340°)11.5 mphClear
7:54 PM39.2 °F20.7 °F47 %30.13 in10.0 miNorth (360°)10.4 mph16.1 mphClear
8:15 PM37.6 °F19.4 °F48 %30.13 in10.0 miNorth (350°)8.1 mphClear
8:35 PM36.1 °F19.9 °F52 %30.14 in10.0 miNorth (350°)6.9 mphClear
8:54 PM34.5 °F20.3 °F56 %30.14 in10.0 miNorth (350°)5.8 mphClear
9:15 PM33.1 °F23.2 °F67 %30.15 in10.0 miNNW (340°)5.8 mphClear
9:35 PM32.4 °F24.4 °F73 %30.16 in10.0 miNorth (350°)8.1 mphClear
9:54 PM32.0 °F24.8 °F75 %30.16 in10.0 miNorth (350°)8.1 mphClear
10:15 PM32.0 °F25.2 °F76 %30.16 in10.0 miNorth (350°)9.2 mphClear
10:34 PM31.6 °F25.5 °F78 %30.16 in10.0 miNorth (360°)9.2 mphClear
10:55 PM30.7 °F25.7 °F82 %30.15 in10.0 miNorth (10°)8.1 mphClear
11:15 PM30.2 °F25.7 °F83 %30.15 in10.0 miNorth (10°)8.1 mphClear
11:34 PM29.7 °F25.7 °F85 %30.15 in10.0 miNorth (360°)6.9 mphClear
11:55 PM28.9 °F25.5 °F87 %30.15 in10.0 miNorth (360°)6.9 mphClear
Hourly data recorded from KISQ, located miles away from Manistique, Michigan







STORIES FROM OUR PARTNERS